{"data":{"norad_id":69450,"epoch":"2026-09-20T02:43:17.423040Z","epoch_age_seconds":58878,"freshness":"FRESH","line1":"1 69450U 26127H   26263.11339610  .00018284  00000+0  55092-3 0  9991","line2":"2 69450  53.1565 167.4607 0001396  85.4923 274.6239 15.34401543 16136","mean_motion":15.34401543,"eccentricity":0.0001396,"inclination_deg":53.1565,"raan_deg":167.4607,"arg_perigee_deg":85.4923,"mean_anomaly_deg":274.6239,"bstar":0.00055092,"rev_number":1613,"period_min":93.847663707674,"perigee_km":461.74367343246,"apogee_km":463.65363474709,"semimajor_km":6840.8356540898,"source":"CELESTRAK","updated_at":"2026-09-20T09:00:44.200075Z"}}